This is the latest recevied weather packets stored in our database for station/object K8CWG. If no packets are shown the sender has not sent any weather packets the latest 10 day(s).
| Time | Temp. | Humidity | Pressure | Rain* | Wind** | Luminosity | Snow |
|---|---|---|---|---|---|---|---|
| 1777776302 | 3.33° C | 77% | 1017.9 hPa | 0 mm | - | - | - |
| 1777773603 | 5° C | 69% | 1017.7 hPa | 0 mm | - | - | - |
| 1777770003 | 7.22° C | 61% | 1017.1 hPa | 0 mm | - | - | - |
| 1777766407 | 9.44° C | 53% | 1016.5 hPa | 0 mm | - | - | - |
| 1777762804 | 10.56° C | 49% | 1016.1 hPa | 0 mm | - | - | - |
| 1777759205 | 11.67° C | 43% | 1015.8 hPa | 0 mm | - | - | - |
| 1777755603 | 13.33° C | 38% | 1015.5 hPa | 0 mm | - | - | - |
| 1777752003 | 12.78° C | 40% | 1015.9 hPa | 0 mm | - | - | - |
| 1777748403 | 12.22° C | 44% | 1016.3 hPa | 0 mm | - | - | - |
| 1777744807 | 12.22° C | 47% | 1016.7 hPa | 0 mm | - | - | - |
| 1777741203 | 12.22° C | 48% | 1017 hPa | 0 mm | - | - | - |
| 1777737602 | 11.67° C | 52% | 1017.3 hPa | 0 mm | - | - | - |
| 1777734004 | 10° C | 54% | 1017.6 hPa | 0 mm | - | - | - |
| 1777730403 | 8.33° C | 61% | 1017.5 hPa | 0 mm | - | - | - |
| 1777726803 | 6.67° C | 74% | 1017.3 hPa | 0 mm | - | - | - |
| 1777723204 | 3.89° C | 87% | 1017.1 hPa | 0 mm | - | - | - |
| 1777719603 | 2.78° C | 93% | 1016.7 hPa | 0 mm | - | - | - |
| 1777716005 | 1.67° C | 93% | 1016.5 hPa | 0 mm | - | - | - |
| 1777712402 | 1.67° C | 91% | 1016.6 hPa | 0 mm | - | - | - |
| 1777708806 | 2.78° C | 91% | 1016.2 hPa | 0 mm | - | - | - |
| 1777705203 | 3.33° C | 89% | 1016.1 hPa | 0 mm | - | - | - |
| 1777701602 | 3.89° C | 90% | 1016.8 hPa | 0 mm | - | - | - |
| 1777698903 | 3.33° C | 91% | 1016.7 hPa | 0 mm | - | - | - |
| 1777698003 | 3.89° C | 91% | 1016.8 hPa | 0 mm | - | - | - |
| 1777697101 | 3.89° C | 90% | 1016.7 hPa | 0 mm | - | - | - |
* Rain latest hour (hover to see other rain measurements)
** Current wind speed in m/s (hover to see current wind gust speed)